COSMOS 2362 (GLONASS)

Satellite information

Favourite Embed

Satellite Type and Status

PAYLOADIN ORBIT

Key statistics

Satellite COSMOS 2362 (GLONASS) at a glance.

Uptime

9846

Days in orbit

Revolutions

≈ 2.1

Per day

Orbit

MEO

Medium Earth Orbit

Inclination

64.2

Latest

Satellite identification and parameters

Extended collection of information and parameters for COSMOS 2362 (GLONASS).

Object identification

Identified? True

Debris? False

Object name: COSMOS 2362 (GLONASS)

International designator: 1998-077C

Object number (NORAD): 25595

Object ID (CCSDS): 25595

Country: COMMONWEALTH OF INDEPENDENT STATES (CIS)

Current information (Y/N): Y

RCS size: LARGE

Orbital parameters

Period: 675.727 minutes

Inclination: 64.2123 deg

SMA: 25507.889 km

Apoapsis: 19146.561 km

Periapsis: 19112.947 km

RAAN: 66.7883 deg

Eccentricy: 0.0006589

Argument of periapsis: 64.8613 deg

Mean anomaly: 297.6174 deg

Mean motion: 2.13103693 rev/day

Mean motion (dot): -0.00000056 rev/day2

B* drag term: 0.0 1/REarth

Two-line elements (TLE)

Creation date: Dec. 12, 2025, 7:26 a.m.

Reference frame: TEME

Reference center: EARTH

Epoch: Dec. 11, 2025, 9:38 p.m. UTC

TLE line 0: 0 COSMOS 2362 (GLONASS)

TLE line 1: 1 25595U 98077C 25345.90205906 -.00000056 00000-0 00000+0 0 9998

TLE line 2: 2 25595 64.2123 66.7883 0006589 64.8613 297.6174 2.13103693209690

Live tracking on map

Real-time ground track for satellite COSMOS 2362 (GLONASS).

In-orbit conjunctions

A list of the most updated potential collisions computed for object COSMOS 2362 (GLONASS).

Target Orbit TCA Probability of collision Miss distance Type
SL-12 R/B(2) MEO 2025-09-14 20:39:21 TBA 2140.0 (m) ROCKET BODY
COSMOS 2396 (GLONASS) MEO 2025-03-09 21:12:25 TBA 3707.0 (m) PAYLOAD
COSMOS 2396 (GLONASS) MEO 2025-03-09 09:56:40 TBA 2345.0 (m) PAYLOAD
COSMOS 2396 (GLONASS) MEO 2025-03-08 22:40:56 TBA 3544.0 (m) PAYLOAD
COSMOS 2396 (GLONASS) MEO 2025-03-08 05:47:21 TBA 4473.0 (m) PAYLOAD

Associated space launch

GLONASS navigation satellites

COSMOS 2362 (GLONASS) was lifted into orbit during the mission ‘Proton | Uragan 72 to 74’, on board a Proton space rocket.

The launch took place on Dec. 30, 1998, 6:35 p.m. from 200/39 (200L).

For more information about the launch, click the button.

Launch to space Proton | Uragan 72 to 74
Proton | Uragan 72 to 74

Agency: N/A

Status: Launch Successful

Launch date: Dec. 30, 1998, 6:35 p.m. UTC

Rocket: Proton

Launch pad: 200/39 (200L)

Location: Baikonur Cosmodrome, Republic of Kazakhstan

...

Latest news about this satellite

There are no fresh news available about this satellite. Check back as we update our databases every day.


Newsletter sign-up

Weekly statistics, charts and insights to help you stay on top of the space industry.